Time,TemperatureF,DewpointF,PressureIn,WindDirection,WindDirectionDegrees,WindSpeedMPH,WindSpeedGustMPH,Humidity,HourlyPrecipIn,Conditions,Clouds,dailyrainin,SoftwareType,DateUTC
2014-01-23 00:00:00,25.6,8.6,30.10,WNW,282,0.0,0.0,48,0.00,,,0.00,Wunderground v.1.15,2014-01-23 07:00:00,
2014-01-23 00:10:00,25.5,9.0,30.10,WNW,282,0.0,4.0,49,0.00,,,0.00,Wunderground v.1.15,2014-01-23 07:10:00,
2014-01-23 00:20:00,25.8,8.8,30.10,WNW,282,1.0,1.0,48,0.00,,,0.00,Wunderground v.1.15,2014-01-23 07:20:00,
2014-01-23 00:25:00,25.8,8.8,30.10,WNW,282,1.0,2.0,48,0.00,,,0.00,Wunderground v.1.15,2014-01-23 07:25:00,
2014-01-23 00:30:00,25.7,8.7,30.10,WNW,282,1.0,1.0,48,0.00,,,0.00,Wunderground v.1.15,2014-01-23 07:30:00,
2014-01-23 00:35:00,25.6,9.1,30.10,WNW,282,1.0,4.0,49,0.00,,,0.00,Wunderground v.1.15,2014-01-23 07:35:00,
2014-01-23 00:40:00,25.8,8.8,30.10,WNW,282,1.0,4.0,48,0.00,,,0.00,Wunderground v.1.15,2014-01-23 07:40:00,
2014-01-23 00:45:00,26.1,9.1,30.10,WNW,282,1.0,4.0,48,0.00,,,0.00,Wunderground v.1.15,2014-01-23 07:45:00,
2014-01-23 00:55:00,26.5,9.9,30.10,WNW,282,0.0,4.0,49,0.00,,,0.00,Wunderground v.1.15,2014-01-23 07:55:00,
2014-01-23 01:00:00,26.5,9.9,30.10,WNW,282,0.0,0.0,49,0.00,,,0.00,Wunderground v.1.15,2014-01-23 08:00:00,
2014-01-23 01:10:00,26.5,9.9,30.10,WNW,282,0.0,3.0,49,0.00,,,0.00,Wunderground v.1.15,2014-01-23 08:10:00,
2014-01-23 01:15:00,26.5,9.9,30.10,WNW,282,0.0,3.0,49,0.00,,,0.00,Wunderground v.1.15,2014-01-23 08:15:00,
2014-01-23 01:20:00,26.4,10.3,30.10,WNW,282,0.0,3.0,50,0.00,,,0.00,Wunderground v.1.15,2014-01-23 08:20:00,
2014-01-23 01:25:00,26.1,10.0,30.10,WNW,282,0.0,3.0,50,0.00,,,0.00,Wunderground v.1.15,2014-01-23 08:25:00,
2014-01-23 01:30:00,26.0,9.9,30.10,WNW,282,0.0,3.0,50,0.00,,,0.00,Wunderground v.1.15,2014-01-23 08:30:00,
2014-01-23 01:35:00,25.9,10.2,30.10,WNW,282,0.0,3.0,51,0.00,,,0.00,Wunderground v.1.15,2014-01-23 08:35:00,
2014-01-23 01:45:00,25.8,10.1,30.10,WNW,282,0.0,3.0,51,0.00,,,0.00,Wunderground v.1.15,2014-01-23 08:45:00,
2014-01-23 01:50:00,25.7,10.0,30.10,WNW,282,0.0,3.0,51,0.00,,,0.00,Wunderground v.1.15,2014-01-23 08:50:00,
2014-01-23 01:55:00,25.8,10.1,30.11,WNW,282,0.0,3.0,51,0.00,,,0.00,Wunderground v.1.15,2014-01-23 08:55:00,
2014-01-23 02:00:00,25.8,10.1,30.11,WNW,282,0.0,0.0,51,0.00,,,0.00,Wunderground v.1.15,2014-01-23 09:00:00,
2014-01-23 02:10:00,25.7,10.5,30.12,WNW,282,0.0,2.0,52,0.00,,,0.00,Wunderground v.1.15,2014-01-23 09:10:00,
2014-01-23 02:15:00,25.7,10.5,30.12,WNW,282,0.0,2.0,52,0.00,,,0.00,Wunderground v.1.15,2014-01-23 09:15:00,
2014-01-23 02:25:00,25.4,11.0,30.12,WNW,282,0.0,2.0,54,0.00,,,0.00,Wunderground v.1.15,2014-01-23 09:25:00,
2014-01-23 02:30:00,25.2,11.3,30.12,WNW,282,0.0,2.0,55,0.00,,,0.00,Wunderground v.1.15,2014-01-23 09:30:00,
2014-01-23 02:35:00,25.0,11.1,30.12,WNW,282,0.0,2.0,55,0.00,,,0.00,Wunderground v.1.15,2014-01-23 09:35:00,
2014-01-23 02:40:00,24.9,11.4,30.12,WNW,282,0.0,2.0,56,0.00,,,0.00,Wunderground v.1.15,2014-01-23 09:40:00,
2014-01-23 02:45:00,24.9,11.4,30.12,WNW,282,0.0,2.0,56,0.00,,,0.00,Wunderground v.1.15,2014-01-23 09:45:00,
2014-01-23 02:50:00,25.0,11.5,30.12,WNW,282,1.0,1.0,56,0.00,,,0.00,Wunderground v.1.15,2014-01-23 09:50:00,
2014-01-23 02:55:00,25.3,11.4,30.11,WNW,282,0.0,2.0,55,0.00,,,0.00,Wunderground v.1.15,2014-01-23 09:55:00,
2014-01-23 03:00:00,25.2,11.3,30.11,WNW,282,0.0,0.0,55,0.00,,,0.00,Wunderground v.1.15,2014-01-23 10:00:00,
2014-01-23 03:10:00,25.1,11.2,30.12,WNW,282,0.0,3.0,55,0.00,,,0.00,Wunderground v.1.15,2014-01-23 10:10:00,
2014-01-23 03:15:00,25.0,11.5,30.11,WNW,282,0.0,3.0,56,0.00,,,0.00,Wunderground v.1.15,2014-01-23 10:15:00,
2014-01-23 03:20:00,24.9,11.4,30.11,WNW,282,0.0,3.0,56,0.00,,,0.00,Wunderground v.1.15,2014-01-23 10:20:00,
2014-01-23 03:25:00,24.8,11.3,30.12,WNW,282,0.0,3.0,56,0.00,,,0.00,Wunderground v.1.15,2014-01-23 10:25:00,
2014-01-23 03:30:00,24.7,11.6,30.12,WNW,282,0.0,3.0,57,0.00,,,0.00,Wunderground v.1.15,2014-01-23 10:30:00,
2014-01-23 03:35:00,24.6,11.5,30.12,WNW,282,1.0,3.0,57,0.00,,,0.00,Wunderground v.1.15,2014-01-23 10:35:00,
2014-01-23 03:45:00,24.3,11.6,30.13,WNW,282,1.0,3.0,58,0.00,,,0.00,Wunderground v.1.15,2014-01-23 10:45:00,
2014-01-23 03:50:00,24.2,11.9,30.13,WNW,282,0.0,3.0,59,0.00,,,0.00,Wunderground v.1.15,2014-01-23 10:50:00,
2014-01-23 03:55:00,23.9,11.6,30.13,WNW,282,1.0,3.0,59,0.00,,,0.00,Wunderground v.1.15,2014-01-23 10:55:00,
2014-01-23 04:00:00,23.6,11.7,30.13,WNW,282,1.0,1.0,60,0.00,,,0.00,Wunderground v.1.15,2014-01-23 11:00:00,
2014-01-23 04:10:00,23.3,11.4,30.13,WNW,282,0.0,3.0,60,0.00,,,0.00,Wunderground v.1.15,2014-01-23 11:10:00,
2014-01-23 04:20:00,23.4,11.5,30.14,WNW,282,0.0,3.0,60,0.00,,,0.00,Wunderground v.1.15,2014-01-23 11:20:00,
2014-01-23 04:30:00,23.2,11.7,30.15,WNW,282,1.0,3.0,61,0.00,,,0.00,Wunderground v.1.15,2014-01-23 11:30:00,
2014-01-23 04:35:00,23.3,11.4,30.15,WNW,282,1.0,3.0,60,0.00,,,0.00,Wunderground v.1.15,2014-01-23 11:35:00,
2014-01-23 04:40:00,23.2,11.7,30.16,WNW,282,1.0,3.0,61,0.00,,,0.00,Wunderground v.1.15,2014-01-23 11:40:00,
2014-01-23 04:45:00,23.1,12.0,30.16,WNW,282,1.0,3.0,62,0.00,,,0.00,Wunderground v.1.15,2014-01-23 11:45:00,
2014-01-23 04:50:00,23.1,12.4,30.17,WNW,282,1.0,3.0,63,0.00,,,0.00,Wunderground v.1.15,2014-01-23 11:50:00,
2014-01-23 04:55:00,23.1,12.4,30.17,WNW,282,1.0,3.0,63,0.00,,,0.00,Wunderground v.1.15,2014-01-23 11:55:00,
2014-01-23 05:00:00,23.2,12.5,30.16,WNW,282,1.0,1.0,63,0.00,,,0.00,Wunderground v.1.15,2014-01-23 12:00:00,
2014-01-23 05:10:00,23.3,12.6,30.17,WNW,282,0.0,5.0,63,0.00,,,0.00,Wunderground v.1.15,2014-01-23 12:10:00,
2014-01-23 05:15:00,23.4,13.0,30.17,WNW,282,0.0,5.0,64,0.00,,,0.00,Wunderground v.1.15,2014-01-23 12:15:00,
2014-01-23 05:20:00,23.5,13.1,30.17,WNW,282,0.0,5.0,64,0.00,,,0.00,Wunderground v.1.15,2014-01-23 12:20:00,
2014-01-23 05:25:00,23.5,13.5,30.17,WNW,282,0.0,5.0,65,0.00,,,0.00,Wunderground v.1.15,2014-01-23 12:25:00,
2014-01-23 05:30:00,23.6,13.5,30.18,WNW,282,1.0,1.0,65,0.00,,,0.00,Wunderground v.1.15,2014-01-23 12:30:00,
2014-01-23 05:35:00,23.7,13.6,30.18,WNW,282,2.0,2.0,65,0.00,,,0.00,Wunderground v.1.15,2014-01-23 12:35:00,
2014-01-23 05:40:00,24.0,14.3,30.18,WNW,282,1.0,1.0,66,0.00,,,0.00,Wunderground v.1.15,2014-01-23 12:40:00,
2014-01-23 05:45:00,24.3,14.6,30.18,WNW,282,0.0,5.0,66,0.00,,,0.00,Wunderground v.1.15,2014-01-23 12:45:00,
2014-01-23 05:50:00,24.4,14.7,30.18,WNW,282,0.0,5.0,66,0.00,,,0.00,Wunderground v.1.15,2014-01-23 12:50:00,
2014-01-23 06:00:00,24.4,14.7,30.19,WNW,282,1.0,1.0,66,0.00,,,0.00,Wunderground v.1.15,2014-01-23 13:00:00,
2014-01-23 06:10:00,23.9,14.2,30.19,WNW,282,0.0,4.0,66,0.00,,,0.00,Wunderground v.1.15,2014-01-23 13:10:00,
2014-01-23 06:15:00,23.6,14.2,30.20,WNW,282,0.0,4.0,67,0.00,,,0.00,Wunderground v.1.15,2014-01-23 13:15:00,
2014-01-23 06:20:00,23.5,14.5,30.20,WNW,282,0.0,4.0,68,0.00,,,0.00,Wunderground v.1.15,2014-01-23 13:20:00,
2014-01-23 06:25:00,23.3,14.6,30.20,WNW,282,0.0,4.0,69,0.00,,,0.00,Wunderground v.1.15,2014-01-23 13:25:00,
2014-01-23 06:30:00,23.1,14.4,30.20,WNW,282,0.0,4.0,69,0.00,,,0.00,Wunderground v.1.15,2014-01-23 13:30:00,
2014-01-23 06:35:00,22.9,14.2,30.20,WNW,282,0.0,4.0,69,0.00,,,0.00,Wunderground v.1.15,2014-01-23 13:35:00,
2014-01-23 06:45:00,22.7,14.1,30.20,WNW,282,0.0,4.0,69,0.00,,,0.00,Wunderground v.1.15,2014-01-23 13:45:00,
2014-01-23 06:50:00,22.6,14.3,30.20,WNW,282,0.0,4.0,70,0.00,,,0.00,Wunderground v.1.15,2014-01-23 13:50:00,
2014-01-23 06:55:00,22.2,14.2,30.20,WNW,282,0.0,4.0,71,0.00,,,0.00,Wunderground v.1.15,2014-01-23 13:55:00,
2014-01-23 07:00:00,22.1,13.8,30.21,WNW,282,0.0,0.0,70,0.00,,,0.00,Wunderground v.1.15,2014-01-23 14:00:00,
2014-01-23 07:10:00,21.5,13.5,30.21,WNW,282,0.0,0.0,71,0.00,,,0.00,Wunderground v.1.15,2014-01-23 14:10:00,
2014-01-23 07:20:00,21.0,13.1,30.22,WNW,282,0.0,0.0,71,0.00,,,0.00,Wunderground v.1.15,2014-01-23 14:20:00,
2014-01-23 07:25:00,20.6,13.0,30.22,WNW,282,0.0,0.0,72,0.00,,,0.00,Wunderground v.1.15,2014-01-23 14:25:00,
2014-01-23 07:30:00,20.3,12.7,30.23,WNW,282,0.0,0.0,72,0.00,,,0.00,Wunderground v.1.15,2014-01-23 14:30:00,
2014-01-23 07:35:00,20.0,12.7,30.23,WNW,282,0.0,0.0,73,0.00,,,0.00,Wunderground v.1.15,2014-01-23 14:35:00,
2014-01-23 07:40:00,20.0,12.4,30.23,WNW,282,0.0,0.0,72,0.00,,,0.00,Wunderground v.1.15,2014-01-23 14:40:00,
2014-01-23 07:55:00,21.3,12.0,30.25,WNW,282,0.0,0.0,67,0.00,,,0.00,Wunderground v.1.15,2014-01-23 14:55:00,
2014-01-23 08:00:00,22.3,13.0,30.26,WNW,282,0.0,0.0,67,0.00,,,0.00,Wunderground v.1.15,2014-01-23 15:00:00,
2014-01-23 08:10:00,23.5,12.7,30.26,WNW,282,0.0,0.0,63,0.00,,,0.00,Wunderground v.1.15,2014-01-23 15:10:00,
2014-01-23 08:15:00,24.0,13.2,30.26,WNW,282,0.0,0.0,63,0.00,,,0.00,Wunderground v.1.15,2014-01-23 15:15:00,
2014-01-23 08:25:00,26.1,13.3,30.27,WNW,282,0.0,0.0,58,0.00,,,0.00,Wunderground v.1.15,2014-01-23 15:25:00,
2014-01-23 08:30:00,26.4,12.4,30.27,WNW,282,0.0,0.0,55,0.00,,,0.00,Wunderground v.1.15,2014-01-23 15:30:00,
2014-01-23 08:35:00,26.3,11.9,30.28,WNW,282,1.0,2.0,54,0.00,,,0.00,Wunderground v.1.15,2014-01-23 15:35:00,
2014-01-23 08:40:00,26.3,12.3,30.28,WNW,282,2.0,2.0,55,0.00,,,0.00,Wunderground v.1.15,2014-01-23 15:40:00,
2014-01-23 08:45:00,26.3,11.9,30.28,WNW,282,2.0,2.0,54,0.00,,,0.00,Wunderground v.1.15,2014-01-23 15:45:00,
2014-01-23 08:50:00,26.2,12.2,30.29,WNW,282,2.0,2.0,55,0.00,,,0.00,Wunderground v.1.15,2014-01-23 15:50:00,
2014-01-23 08:55:00,26.3,11.9,30.29,WNW,282,1.0,2.0,54,0.00,,,0.00,Wunderground v.1.15,2014-01-23 15:55:00,
2014-01-23 09:00:00,26.7,12.3,30.29,WNW,282,1.0,1.0,54,0.00,,,0.00,Wunderground v.1.15,2014-01-23 16:00:00,
2014-01-23 09:10:00,27.2,12.7,30.30,WNW,282,2.0,6.0,54,0.00,,,0.00,Wunderground v.1.15,2014-01-23 16:10:00,
2014-01-23 09:15:00,27.3,12.8,30.30,WNW,282,2.0,6.0,54,0.00,,,0.00,Wunderground v.1.15,2014-01-23 16:15:00,
2014-01-23 09:20:00,27.4,12.9,30.31,WNW,282,2.0,2.0,54,0.00,,,0.00,Wunderground v.1.15,2014-01-23 16:20:00,
2014-01-23 09:25:00,27.8,13.3,30.31,WNW,282,1.0,6.0,54,0.00,,,0.00,Wunderground v.1.15,2014-01-23 16:25:00,
2014-01-23 09:30:00,27.9,13.0,30.31,WNW,282,1.0,1.0,53,0.00,,,0.00,Wunderground v.1.15,2014-01-23 16:30:00,
2014-01-23 09:35:00,28.0,13.1,30.31,WNW,282,2.0,3.0,53,0.00,,,0.00,Wunderground v.1.15,2014-01-23 16:35:00,
2014-01-23 09:45:00,29.2,14.2,30.31,West,278,3.0,8.0,53,0.00,,,0.00,Wunderground v.1.15,2014-01-23 16:45:00,
2014-01-23 09:50:00,29.7,13.8,30.32,WNW,291,2.0,6.0,51,0.00,,,0.00,Wunderground v.1.15,2014-01-23 16:50:00,
2014-01-23 09:55:00,30.1,14.1,30.33,WNW,293,3.0,6.0,51,0.00,,,0.00,Wunderground v.1.15,2014-01-23 16:55:00,
2014-01-23 10:00:00,30.5,14.0,30.33,WNW,297,4.0,7.0,50,0.00,,,0.00,Wunderground v.1.15,2014-01-23 17:00:00,
2014-01-23 10:10:00,30.6,13.7,30.34,NE,56,5.0,5.0,49,0.00,,,0.00,Wunderground v.1.15,2014-01-23 17:10:00,
2014-01-23 10:15:00,31.1,13.7,30.34,ENE,66,6.0,8.0,48,0.00,,,0.00,Wunderground v.1.15,2014-01-23 17:15:00,
2014-01-23 10:20:00,31.0,13.1,30.34,NE,52,6.0,8.0,47,0.00,,,0.00,Wunderground v.1.15,2014-01-23 17:20:00,
2014-01-23 10:25:00,31.3,13.9,30.35,East,93,7.0,8.0,48,0.00,,,0.00,Wunderground v.1.15,2014-01-23 17:25:00,
2014-01-23 10:30:00,31.4,14.4,30.35,East,95,5.0,5.0,49,0.00,,,0.00,Wunderground v.1.15,2014-01-23 17:30:00,
2014-01-23 10:35:00,31.7,13.7,30.35,East,87,5.0,8.0,47,0.00,,,0.00,Wunderground v.1.15,2014-01-23 17:35:00,
2014-01-23 10:40:00,32.3,14.3,30.35,East,84,4.0,4.0,47,0.00,,,0.00,Wunderground v.1.15,2014-01-23 17:40:00,
2014-01-23 10:45:00,32.8,13.8,30.35,ENE,78,3.0,8.0,45,0.00,,,0.00,Wunderground v.1.15,2014-01-23 17:45:00,
2014-01-23 10:50:00,33.1,14.0,30.35,East,83,3.0,8.0,45,0.00,,,0.00,Wunderground v.1.15,2014-01-23 17:50:00,
2014-01-23 10:55:00,33.0,13.4,30.35,ENE,61,4.0,8.0,44,0.00,,,0.00,Wunderground v.1.15,2014-01-23 17:55:00,
2014-01-23 11:00:00,32.9,13.3,30.36,ESE,108,5.0,6.0,44,0.00,,,0.00,Wunderground v.1.15,2014-01-23 18:00:00,
2014-01-23 11:10:00,33.9,13.7,30.35,NE,44,5.0,12.0,43,0.00,,,0.00,Wunderground v.1.15,2014-01-23 18:10:00,
2014-01-23 11:15:00,34.2,12.9,30.35,NE,54,4.0,12.0,41,0.00,,,0.00,Wunderground v.1.15,2014-01-23 18:15:00,
2014-01-23 11:20:00,34.5,12.6,30.35,ENE,58,5.0,12.0,40,0.00,,,0.00,Wunderground v.1.15,2014-01-23 18:20:00,
2014-01-23 11:25:00,34.2,12.4,30.35,ESE,118,6.0,12.0,40,0.00,,,0.00,Wunderground v.1.15,2014-01-23 18:25:00,
2014-01-23 11:30:00,34.4,12.0,30.36,East,92,6.0,6.0,39,0.00,,,0.00,Wunderground v.1.15,2014-01-23 18:30:00,
2014-01-23 11:35:00,34.5,13.2,30.35,ENE,66,6.0,12.0,41,0.00,,,0.00,Wunderground v.1.15,2014-01-23 18:35:00,
2014-01-23 11:40:00,34.8,12.3,30.35,ENE,74,6.0,12.0,39,0.00,,,0.00,Wunderground v.1.15,2014-01-23 18:40:00,
2014-01-23 11:45:00,34.7,11.6,30.35,ESE,114,6.0,12.0,38,0.00,,,0.00,Wunderground v.1.15,2014-01-23 18:45:00,
2014-01-23 11:55:00,35.4,11.7,30.35,NE,49,5.0,12.0,37,0.00,,,0.00,Wunderground v.1.15,2014-01-23 18:55:00,
2014-01-23 12:00:00,35.7,11.9,30.35,NE,44,4.0,4.0,37,0.00,,,0.00,Wunderground v.1.15,2014-01-23 19:00:00,
2014-01-23 12:10:00,36.0,10.3,30.34,NE,44,4.0,13.0,34,0.00,,,0.00,Wunderground v.1.15,2014-01-23 19:10:00,
2014-01-23 12:15:00,35.6,11.2,30.34,East,95,6.0,13.0,36,0.00,,,0.00,Wunderground v.1.15,2014-01-23 19:15:00,
2014-01-23 12:20:00,36.2,11.8,30.34,NE,54,6.0,6.0,36,0.00,,,0.00,Wunderground v.1.15,2014-01-23 19:20:00,
2014-01-23 12:30:00,36.5,11.4,30.33,NE,52,6.0,6.0,35,0.00,,,0.00,Wunderground v.1.15,2014-01-23 19:30:00,
2014-01-23 12:35:00,36.4,11.3,30.33,NE,52,6.0,13.0,35,0.00,,,0.00,Wunderground v.1.15,2014-01-23 19:35:00,
2014-01-23 12:40:00,36.7,10.9,30.33,ENE,66,5.0,13.0,34,0.00,,,0.00,Wunderground v.1.15,2014-01-23 19:40:00,
2014-01-23 12:45:00,36.7,11.6,30.34,NE,40,4.0,13.0,35,0.00,,,0.00,Wunderground v.1.15,2014-01-23 19:45:00,
2014-01-23 12:50:00,36.8,11.0,30.33,NE,52,4.0,4.0,34,0.00,,,0.00,Wunderground v.1.15,2014-01-23 19:50:00,
2014-01-23 13:00:00,37.8,11.9,30.33,NE,52,3.0,3.0,34,0.00,,,0.00,Wunderground v.1.15,2014-01-23 20:00:00,
2014-01-23 13:10:00,38.6,12.6,30.33,ENE,60,2.0,13.0,34,0.00,,,0.00,Wunderground v.1.15,2014-01-23 20:10:00,
2014-01-23 13:15:00,38.5,11.1,30.33,NE,49,2.0,13.0,32,0.00,,,0.00,Wunderground v.1.15,2014-01-23 20:15:00,
2014-01-23 13:20:00,38.6,12.6,30.33,NE,49,2.0,13.0,34,0.00,,,0.00,Wunderground v.1.15,2014-01-23 20:20:00,
2014-01-23 13:25:00,38.9,11.5,30.33,NE,49,1.0,13.0,32,0.00,,,0.00,Wunderground v.1.15,2014-01-23 20:25:00,
2014-01-23 13:30:00,39.3,10.4,30.33,ENE,58,3.0,13.0,30,0.00,,,0.00,Wunderground v.1.15,2014-01-23 20:30:00,
2014-01-23 13:35:00,38.9,11.5,30.33,ENE,57,3.0,13.0,32,0.00,,,0.00,Wunderground v.1.15,2014-01-23 20:35:00,
2014-01-23 13:40:00,39.2,10.3,30.33,ENE,58,2.0,13.0,30,0.00,,,0.00,Wunderground v.1.15,2014-01-23 20:40:00,
2014-01-23 13:50:00,40.0,15.8,30.33,NE,44,2.0,2.0,37,0.00,,,0.00,Wunderground v.1.15,2014-01-23 20:50:00,
2014-01-23 13:55:00,40.8,15.2,30.33,NNW,335,1.0,13.0,35,0.00,,,0.00,Wunderground v.1.15,2014-01-23 20:55:00,
2014-01-23 14:00:00,40.4,14.9,30.33,NNW,348,2.0,2.0,35,0.00,,,0.00,Wunderground v.1.15,2014-01-23 21:00:00,
2014-01-23 14:10:00,40.9,16.0,30.33,NNW,330,1.0,1.0,36,0.00,,,0.00,Wunderground v.1.15,2014-01-23 21:10:00,
2014-01-23 14:15:00,41.7,16.0,30.33,NNW,328,0.0,8.0,35,0.00,,,0.00,Wunderground v.1.15,2014-01-23 21:15:00,
2014-01-23 14:20:00,42.2,15.8,30.33,NNW,328,0.0,8.0,34,0.00,,,0.00,Wunderground v.1.15,2014-01-23 21:20:00,
2014-01-23 14:25:00,42.6,15.5,30.34,NNW,327,1.0,8.0,33,0.00,,,0.00,Wunderground v.1.15,2014-01-23 21:25:00,
2014-01-23 14:35:00,42.0,14.9,30.34,NNW,327,1.0,8.0,33,0.00,,,0.00,Wunderground v.1.15,2014-01-23 21:35:00,
2014-01-23 14:45:00,42.1,15.0,30.34,NNW,327,0.0,8.0,33,0.00,,,0.00,Wunderground v.1.15,2014-01-23 21:45:00,
2014-01-23 14:50:00,42.5,14.7,30.34,NNW,327,0.0,8.0,32,0.00,,,0.00,Wunderground v.1.15,2014-01-23 21:50:00,
2014-01-23 14:55:00,40.9,14.6,30.34,NNW,327,1.0,8.0,34,0.00,,,0.00,Wunderground v.1.15,2014-01-23 21:55:00,
2014-01-23 15:00:00,40.3,16.1,30.34,NNW,328,1.0,1.0,37,0.00,,,0.00,Wunderground v.1.15,2014-01-23 22:00:00,
2014-01-23 15:10:00,40.6,15.7,30.34,NNW,328,0.0,5.0,36,0.00,,,0.00,Wunderground v.1.15,2014-01-23 22:10:00,
2014-01-23 15:15:00,40.3,16.1,30.35,NNW,328,1.0,5.0,37,0.00,,,0.00,Wunderground v.1.15,2014-01-23 22:15:00,
2014-01-23 15:20:00,40.9,17.2,30.35,NW,318,1.0,5.0,38,0.00,,,0.00,Wunderground v.1.15,2014-01-23 22:20:00,
2014-01-23 15:25:00,41.9,16.2,30.35,NW,312,1.0,5.0,35,0.00,,,0.00,Wunderground v.1.15,2014-01-23 22:25:00,
2014-01-23 15:30:00,42.5,16.7,30.35,NW,312,1.0,5.0,35,0.00,,,0.00,Wunderground v.1.15,2014-01-23 22:30:00,
2014-01-23 15:35:00,42.6,16.2,30.36,NW,310,0.0,6.0,34,0.00,,,0.00,Wunderground v.1.15,2014-01-23 22:35:00,
2014-01-23 15:40:00,42.6,16.8,30.36,NW,307,1.0,1.0,35,0.00,,,0.00,Wunderground v.1.15,2014-01-23 22:40:00,
2014-01-23 15:45:00,42.6,16.8,30.36,NW,307,1.0,3.0,35,0.00,,,0.00,Wunderground v.1.15,2014-01-23 22:45:00,
2014-01-23 15:50:00,42.4,16.6,30.36,NW,307,1.0,5.0,35,0.00,,,0.00,Wunderground v.1.15,2014-01-23 22:50:00,
2014-01-23 15:55:00,42.2,17.1,30.36,NW,307,1.0,5.0,36,0.00,,,0.00,Wunderground v.1.15,2014-01-23 22:55:00,
2014-01-23 16:00:00,42.1,16.4,30.36,NW,307,1.0,1.0,35,0.00,,,0.00,Wunderground v.1.15,2014-01-23 23:00:00,
2014-01-23 16:10:00,42.1,17.0,30.37,NW,306,1.0,1.0,36,0.00,,,0.00,Wunderground v.1.15,2014-01-23 23:10:00,
2014-01-23 16:15:00,42.2,17.1,30.37,NW,306,0.0,6.0,36,0.00,,,0.00,Wunderground v.1.15,2014-01-23 23:15:00,
2014-01-23 16:20:00,42.2,17.1,30.37,NW,306,0.0,6.0,36,0.00,,,0.00,Wunderground v.1.15,2014-01-23 23:20:00,
2014-01-23 16:25:00,42.1,17.0,30.37,NW,306,1.0,6.0,36,0.00,,,0.00,Wunderground v.1.15,2014-01-23 23:25:00,
2014-01-23 16:30:00,41.9,16.9,30.38,NW,306,1.0,1.0,36,0.00,,,0.00,Wunderground v.1.15,2014-01-23 23:30:00,
2014-01-23 16:35:00,41.6,16.6,30.38,NW,306,0.0,6.0,36,0.00,,,0.00,Wunderground v.1.15,2014-01-23 23:35:00,
2014-01-23 16:45:00,41.1,16.8,30.38,NW,306,0.0,6.0,37,0.00,,,0.00,Wunderground v.1.15,2014-01-23 23:45:00,
2014-01-23 16:50:00,39.3,12.6,30.39,NW,306,0.0,6.0,33,0.00,,,0.00,Wunderground v.1.15,2014-01-23 23:50:00,
2014-01-23 16:55:00,37.6,12.4,30.39,NW,306,1.0,6.0,35,0.00,,,0.00,Wunderground v.1.15,2014-01-23 23:55:00,
2014-01-23 17:00:00,36.8,12.9,30.39,NW,306,0.0,0.0,37,0.00,,,0.00,Wunderground v.1.15,2014-01-24 00:00:00,
2014-01-23 17:10:00,36.8,13.5,30.39,NW,306,0.0,5.0,38,0.00,,,0.00,Wunderground v.1.15,2014-01-24 00:10:00,
2014-01-23 17:15:00,36.4,13.2,30.39,NW,306,0.0,5.0,38,0.00,,,0.00,Wunderground v.1.15,2014-01-24 00:15:00,
2014-01-23 17:20:00,35.2,12.7,30.40,NW,306,0.0,5.0,39,0.00,,,0.00,Wunderground v.1.15,2014-01-24 00:20:00,
2014-01-23 17:25:00,34.2,13.5,30.40,NW,306,0.0,5.0,42,0.00,,,0.00,Wunderground v.1.15,2014-01-24 00:25:00,
2014-01-23 17:35:00,31.9,12.9,30.41,NW,306,1.0,5.0,45,0.00,,,0.00,Wunderground v.1.15,2014-01-24 00:35:00,
2014-01-23 17:40:00,31.6,13.2,30.41,NW,306,1.0,1.0,46,0.00,,,0.00,Wunderground v.1.15,2014-01-24 00:40:00,
2014-01-23 17:45:00,31.3,13.4,30.41,NW,306,0.0,5.0,47,0.00,,,0.00,Wunderground v.1.15,2014-01-24 00:45:00,
2014-01-23 17:55:00,30.8,13.4,30.42,NW,306,0.0,5.0,48,0.00,,,0.00,Wunderground v.1.15,2014-01-24 00:55:00,
2014-01-23 18:00:00,30.6,13.2,30.43,NW,306,0.0,0.0,48,0.00,,,0.00,Wunderground v.1.15,2014-01-24 01:00:00,
2014-01-23 18:10:00,30.3,13.4,30.43,NW,306,0.0,5.0,49,0.00,,,0.00,Wunderground v.1.15,2014-01-24 01:10:00,
2014-01-23 18:15:00,30.1,13.2,30.43,NW,306,0.0,5.0,49,0.00,,,0.00,Wunderground v.1.15,2014-01-24 01:15:00,
2014-01-23 18:20:00,29.9,13.5,30.44,NW,306,0.0,5.0,50,0.00,,,0.00,Wunderground v.1.15,2014-01-24 01:20:00,
2014-01-23 18:25:00,29.6,13.2,30.44,NW,306,0.0,5.0,50,0.00,,,0.00,Wunderground v.1.15,2014-01-24 01:25:00,
2014-01-23 18:35:00,29.6,13.7,30.45,NW,306,1.0,5.0,51,0.00,,,0.00,Wunderground v.1.15,2014-01-24 01:35:00,
2014-01-23 18:40:00,29.4,13.5,30.45,NW,306,1.0,1.0,51,0.00,,,0.00,Wunderground v.1.15,2014-01-24 01:40:00,
2014-01-23 18:45:00,29.2,13.3,30.45,NW,306,0.0,5.0,51,0.00,,,0.00,Wunderground v.1.15,2014-01-24 01:45:00,
2014-01-23 18:50:00,29.0,13.6,30.45,NW,306,0.0,5.0,52,0.00,,,0.00,Wunderground v.1.15,2014-01-24 01:50:00,
2014-01-23 18:55:00,29.0,13.6,30.46,NW,306,0.0,5.0,52,0.00,,,0.00,Wunderground v.1.15,2014-01-24 01:55:00,
2014-01-23 19:00:00,28.8,12.9,30.46,NW,306,0.0,0.0,51,0.00,,,0.00,Wunderground v.1.15,2014-01-24 02:00:00,
2014-01-23 19:10:00,28.2,13.7,30.46,NW,306,0.0,4.0,54,0.00,,,0.00,Wunderground v.1.15,2014-01-24 02:10:00,
2014-01-23 19:20:00,27.8,13.7,30.46,NW,306,0.0,4.0,55,0.00,,,0.00,Wunderground v.1.15,2014-01-24 02:20:00,
2014-01-23 19:25:00,27.7,14.0,30.47,NW,306,0.0,4.0,56,0.00,,,0.00,Wunderground v.1.15,2014-01-24 02:25:00,
2014-01-23 19:30:00,27.6,13.9,30.47,NW,306,0.0,4.0,56,0.00,,,0.00,Wunderground v.1.15,2014-01-24 02:30:00,
2014-01-23 19:35:00,27.5,14.2,30.47,NW,306,0.0,4.0,57,0.00,,,0.00,Wunderground v.1.15,2014-01-24 02:35:00,
2014-01-23 19:40:00,27.4,14.1,30.48,NW,306,0.0,4.0,57,0.00,,,0.00,Wunderground v.1.15,2014-01-24 02:40:00,
2014-01-23 19:45:00,27.4,14.5,30.48,NW,306,0.0,4.0,58,0.00,,,0.00,Wunderground v.1.15,2014-01-24 02:45:00,
2014-01-23 19:50:00,27.2,14.4,30.48,NW,306,0.0,4.0,58,0.00,,,0.00,Wunderground v.1.15,2014-01-24 02:50:00,
2014-01-23 19:55:00,27.0,14.2,30.48,NW,306,0.0,4.0,58,0.00,,,0.00,Wunderground v.1.15,2014-01-24 02:55:00,
2014-01-23 20:00:00,26.7,13.9,30.49,NW,306,0.0,0.0,58,0.00,,,0.00,Wunderground v.1.15,2014-01-24 03:00:00,
2014-01-23 20:10:00,25.7,13.7,30.50,NW,306,0.0,3.0,60,0.00,,,0.00,Wunderground v.1.15,2014-01-24 03:10:00,
2014-01-23 20:15:00,25.3,13.7,30.50,NW,306,0.0,3.0,61,0.00,,,0.00,Wunderground v.1.15,2014-01-24 03:15:00,
2014-01-23 20:20:00,24.9,13.7,30.51,NW,306,0.0,3.0,62,0.00,,,0.00,Wunderground v.1.15,2014-01-24 03:20:00,
2014-01-23 20:30:00,23.8,13.7,30.51,NW,306,1.0,1.0,65,0.00,,,0.00,Wunderground v.1.15,2014-01-24 03:30:00,
2014-01-23 20:35:00,23.3,13.3,30.51,NW,306,1.0,3.0,65,0.00,,,0.00,Wunderground v.1.15,2014-01-24 03:35:00,
2014-01-23 20:40:00,22.7,12.7,30.51,NW,306,0.0,3.0,65,0.00,,,0.00,Wunderground v.1.15,2014-01-24 03:40:00,
2014-01-23 20:50:00,22.8,13.5,30.52,NW,306,1.0,1.0,67,0.00,,,0.00,Wunderground v.1.15,2014-01-24 03:50:00,
2014-01-23 20:55:00,22.7,13.4,30.52,NW,306,0.0,3.0,67,0.00,,,0.00,Wunderground v.1.15,2014-01-24 03:55:00,
2014-01-23 21:00:00,22.7,13.7,30.52,NW,306,0.0,0.0,68,0.00,,,0.00,Wunderground v.1.15,2014-01-24 04:00:00,
2014-01-23 21:10:00,22.4,13.4,30.53,NW,306,1.0,4.0,68,0.00,,,0.00,Wunderground v.1.15,2014-01-24 04:10:00,
2014-01-23 21:15:00,22.1,13.1,30.53,NW,306,1.0,4.0,68,0.00,,,0.00,Wunderground v.1.15,2014-01-24 04:15:00,
2014-01-23 21:20:00,21.9,13.3,30.54,NW,306,2.0,2.0,69,0.00,,,0.00,Wunderground v.1.15,2014-01-24 04:20:00,
2014-01-23 21:30:00,22.3,13.7,30.54,NW,306,2.0,4.0,69,0.00,,,0.00,Wunderground v.1.15,2014-01-24 04:30:00,
2014-01-23 21:35:00,22.5,13.5,30.55,WNW,303,2.0,4.0,68,0.00,,,0.00,Wunderground v.1.15,2014-01-24 04:35:00,
2014-01-23 21:40:00,22.7,13.4,30.55,WNW,303,2.0,2.0,67,0.00,,,0.00,Wunderground v.1.15,2014-01-24 04:40:00,
2014-01-23 21:45:00,22.7,13.4,30.56,WNW,301,2.0,4.0,67,0.00,,,0.00,Wunderground v.1.15,2014-01-24 04:45:00,
2014-01-23 21:50:00,22.7,13.4,30.56,WNW,301,1.0,1.0,67,0.00,,,0.00,Wunderground v.1.15,2014-01-24 04:50:00,
2014-01-23 21:55:00,22.7,13.0,30.56,WNW,301,0.0,4.0,66,0.00,,,0.00,Wunderground v.1.15,2014-01-24 04:55:00,
2014-01-23 22:00:00,22.5,13.2,30.56,WNW,301,0.0,0.0,67,0.00,,,0.00,Wunderground v.1.15,2014-01-24 05:00:00,
2014-01-23 22:05:00,22.4,13.1,30.57,WNW,301,0.0,5.0,67,0.00,,,0.00,Wunderground v.1.15,2014-01-24 05:05:00,
2014-01-23 22:10:00,22.3,13.0,30.57,WNW,301,0.0,5.0,67,0.00,,,0.00,Wunderground v.1.15,2014-01-24 05:10:00,
2014-01-23 22:15:00,22.2,12.9,30.57,WNW,301,0.0,5.0,67,0.00,,,0.00,Wunderground v.1.15,2014-01-24 05:15:00,
2014-01-23 22:20:00,21.9,13.0,30.58,WNW,301,0.0,5.0,68,0.00,,,0.00,Wunderground v.1.15,2014-01-24 05:20:00,
2014-01-23 22:25:00,21.8,12.9,30.58,WNW,301,0.0,5.0,68,0.00,,,0.00,Wunderground v.1.15,2014-01-24 05:25:00,
2014-01-23 22:30:00,21.7,13.1,30.58,WNW,301,1.0,5.0,69,0.00,,,0.00,Wunderground v.1.15,2014-01-24 05:30:00,
2014-01-23 22:35:00,21.5,12.9,30.58,WNW,301,1.0,5.0,69,0.00,,,0.00,Wunderground v.1.15,2014-01-24 05:35:00,
2014-01-23 22:40:00,21.3,12.7,30.58,WNW,301,0.0,5.0,69,0.00,,,0.00,Wunderground v.1.15,2014-01-24 05:40:00,
2014-01-23 22:50:00,20.9,12.6,30.59,WNW,301,0.0,5.0,70,0.00,,,0.00,Wunderground v.1.15,2014-01-24 05:50:00,
2014-01-23 22:55:00,20.8,12.9,30.59,WNW,301,0.0,5.0,71,0.00,,,0.00,Wunderground v.1.15,2014-01-24 05:55:00,
2014-01-23 23:00:00,20.5,12.6,30.59,WNW,301,0.0,1.0,71,0.00,,,0.00,Wunderground v.1.15,2014-01-24 06:00:00,
2014-01-23 23:05:00,20.3,12.7,30.59,WNW,301,0.0,4.0,72,0.00,,,0.00,Wunderground v.1.15,2014-01-24 06:05:00,
2014-01-23 23:10:00,20.4,12.8,30.59,WNW,301,0.0,4.0,72,0.00,,,0.00,Wunderground v.1.15,2014-01-24 06:10:00,
2014-01-23 23:15:00,20.5,12.9,30.59,WNW,301,1.0,4.0,72,0.00,,,0.00,Wunderground v.1.15,2014-01-24 06:15:00,
2014-01-23 23:20:00,20.5,12.9,30.60,WNW,301,1.0,4.0,72,0.00,,,0.00,Wunderground v.1.15,2014-01-24 06:20:00,
2014-01-23 23:25:00,20.4,12.8,30.60,WNW,301,0.0,4.0,72,0.00,,,0.00,Wunderground v.1.15,2014-01-24 06:25:00,
2014-01-23 23:35:00,20.2,12.9,30.60,WNW,301,0.0,4.0,73,0.00,,,0.00,Wunderground v.1.15,2014-01-24 06:35:00,
2014-01-23 23:40:00,20.1,13.1,30.60,WNW,301,0.0,4.0,74,0.00,,,0.00,Wunderground v.1.15,2014-01-24 06:40:00,
2014-01-23 23:45:00,20.2,13.2,30.60,WNW,301,0.0,4.0,74,0.00,,,0.00,Wunderground v.1.15,2014-01-24 06:45:00,
2014-01-23 23:50:00,20.0,13.0,30.60,WNW,301,0.0,4.0,74,0.00,,,0.00,Wunderground v.1.15,2014-01-24 06:50:00,